[[{"header":{"parameterUnit":"m.s-1","parameterCategory":1,"la1":30.2991,"la2":30.254,"lo1":-89.0895,"lo2":-89.0444,"dy":0.0017,"dx":0.0017,"nx":28,"ny":28,"refTime":"2026-01-31T03:00:00:Z","depth":0,"parameterNumber":2,"parameterNumberName":"U-component_of_WINDS"},"data":[0,0,0,0,0,0,0,0,0,0,0,0,0,0,0,0,0,0,0,0,0,0,0,0,0,0,0,0,0,0,0,0,0,0,0,0,0,0,0,0,0,0,0,0,0,0,0,0,0,0,0,0,0,0,0,0,0,0,2.7778,2.7778,0,2.7794,2.7794,2.7794,2.7731,2.7729,2.7727,2.7725,2.774,2.7742,2.7744,0,0,0,0,0,0,0,0,0,0,0,0,0,2.7693,2.7695,2.7778,2.7778,2.7779,2.7794,2.7794,2.7794,2.7731,2.7729,2.7726,2.7724,2.774,2.7742,2.7745,0,0,0,0,0,0,0,0,0,0,0,0,0,2.7721,2.7695,2.7778,2.7749,2.7746,2.7793,2.7794,2.7794,2.7731,2.7729,2.7726,2.7723,2.7739,2.7742,2.7745,2.7821,0,0,2.7755,2.7756,0,0,0,0,0,0,0,0,2.772,2.7725,2.7753,2.7751,2.7748,2.7757,2.7769,2.7803,2.7732,2.7737,2.7725,2.7722,2.7748,2.775,2.7759,2.7821,2.7822,2.7755,2.7757,2.7758,2.7759,0,0,0,0,0,0,0,2.7718,2.7724,2.7784,2.7754,2.7751,2.7735,2.7736,2.7775,2.7758,2.7736,2.7732,2.7735,2.7746,2.7756,2.7759,2.7822,2.7755,2.7758,2.776,2.7761,2.7945,2.7948,0,0,0,0,0,0,2.772,2.7722,2.7784,2.7785,2.7727,2.7738,2.7739,2.7757,2.7757,2.7755,2.7737,2.7732,2.7752,2.7756,2.776,2.7847,2.7758,2.7761,2.7763,2.7942,2.7946,2.7949,0,0,0,0,0,0,2.7718,2.7726,2.7783,2.7752,2.7758,2.7743,2.7763,2.7759,2.7769,2.7758,2.7754,2.7751,2.775,2.7755,2.7806,2.7846,2.7763,2.7766,2.7939,2.7944,2.7948,2.8023,0,0,0,0,0,0,2.7716,2.7726,2.7755,2.7753,2.776,2.783,2.7766,2.7761,2.7775,2.7768,2.777,2.7767,2.7748,2.7801,2.7809,2.7849,2.7768,2.7935,2.7941,2.7946,2.8017,2.8029,2.804,0,0,0,0,0,2.7713,2.7776,2.7757,2.7764,2.7796,2.7832,2.7836,2.7813,2.7778,2.7807,2.78,2.7767,2.7841,2.7807,2.7815,2.7857,2.7932,2.7939,2.7946,2.8011,2.8027,2.804,0,0,0,0,0,0,2.7782,2.7775,2.7754,2.7818,2.7826,2.7821,2.7857,2.783,2.7849,2.7841,2.7812,2.7813,2.7868,2.7868,2.783,2.7929,2.7881,2.7889,2.7928,2.7942,2.7954,2.7952,2.7771,0,0,0,0,0,2.7805,2.7835,2.7827,2.7884,2.7889,2.7873,2.7887,2.7869,2.7876,2.7879,2.7876,2.7884,2.7909,2.7926,2.7948,2.8017,2.8015,2.8049,2.8061,2.8071,2.8078,2.8113,2.8127,2.7971,2.7971,2.7971,0,0,2.7852,2.7852,2.7873,2.7898,2.7902,2.7933,2.7876,2.7912,2.7934,2.7885,2.7932,2.793,2.7937,2.7996,2.8022,2.7997,2.8121,2.8079,2.8087,2.8089,2.8121,2.8136,2.8149,2.7976,2.7975,2.7974,0,0,2.7954,2.7957,2.8004,2.8009,2.8016,2.8005,2.8016,2.8015,2.8012,2.8059,2.8022,2.8048,2.8092,2.8098,2.8107,2.821,2.818,2.8218,2.8279,2.8313,2.8325,2.8336,2.8371,2.8384,2.8226,2.8226,2.8226,0,2.8011,2.8057,2.8032,2.8069,2.8081,2.8038,2.8084,2.8091,2.8105,2.8114,2.8086,2.8139,2.8141,2.82,2.8225,2.8235,2.8246,2.8217,2.8326,2.8336,2.8346,2.8379,2.8392,2.823,2.823,2.8229,2.8229,0,2.8126,2.8158,2.8195,2.821,2.8226,2.8268,2.8248,2.8267,2.8248,2.8239,2.8286,2.8287,2.8308,2.8321,2.8303,2.8378,2.8362,2.8331,2.8281,2.8366,2.8396,2.8409,2.8237,2.8235,2.8234,2.8233,0,0,2.8271,2.827,2.8284,2.829,2.8294,2.8318,2.8358,2.8378,2.8394,2.8406,2.8437,2.8475,2.8446,2.8456,2.8438,2.8468,2.8547,2.8432,2.8432,2.8452,2.8628,2.8651,2.8666,2.8528,2.853,2.8532,2.8627,0,2.8369,2.8437,2.8415,2.8484,2.8512,2.8471,2.8506,2.8512,2.8505,2.8527,2.8519,2.8546,2.8506,2.8511,2.8539,2.8532,2.8582,2.8525,2.8556,2.8558,2.8554,2.8682,2.8706,2.8796,2.8639,2.8641,2.8643,0,2.8493,2.8508,2.8579,2.8577,2.8588,2.862,2.8636,2.8659,2.8664,2.8657,2.8668,2.8643,2.8681,2.8632,2.8684,2.8645,2.8657,2.8655,2.8658,2.8659,2.8604,2.8685,2.8824,2.8837,2.8661,2.866,2.8659,0,2.8589,2.8628,2.8675,2.8681,2.868,2.8703,2.8704,2.8707,2.872,2.8734,2.8742,2.8761,2.8771,2.8786,2.8767,2.8733,2.8821,2.877,2.8814,2.8815,2.8833,2.8832,2.8974,2.8844,2.8844,2.8844,2.8843,0,2.87,2.8745,2.8718,2.8747,2.8795,2.877,2.8818,2.8815,2.8817,2.8844,2.8811,2.8837,2.881,2.8833,2.8818,2.8862,2.8868,2.8862,2.8857,2.8864,2.8864,2.887,2.8863,2.8847,2.8846,2.8846,2.8845,0,2.8816,2.88,2.8848,2.8843,2.8843,2.8879,2.8874,2.8901,2.8891,2.8925,2.8932,2.8916,2.8942,2.8924,2.895,2.894,2.8997,2.8984,2.8995,2.8991,2.9035,2.9031,2.9185,2.9203,2.9062,2.9064,2.9065,0,2.8887,2.892,2.8919,2.8934,2.8937,2.8962,2.8975,2.8951,2.8966,2.8975,2.8999,2.9022,2.9039,2.9081,2.9072,2.9091,2.9078,2.9131,2.9081,2.9086,2.9077,2.9074,2.9077,2.914,2.9142,2.9143,2.9144,0,2.9014,2.9004,2.9024,2.9042,2.9058,2.907,2.908,2.9095,2.907,2.9089,2.9114,2.9127,2.9153,2.9175,2.9191,2.9191,2.9164,2.9161,2.9171,2.9178,2.9182,2.9178,2.9021,2.9157,2.9155,2.9155,2.9154,2.9153,2.9108,2.9135,2.9138,2.9161,2.9166,2.9175,2.9199,2.9192,2.9213,2.9231,2.9216,2.9246,2.925,2.9268,2.9272,2.9294,2.9273,2.9289,2.9293,2.9297,2.9302,2.918,2.9297,2.9297,2.9297,2.9296,2.9296,0,2.9232,2.9232,2.9253,2.9267,2.9285,2.9258,2.9267,2.9284,2.9311,2.9316,2.9333,2.9362,2.9383,2.9376,2.9394,2.9414,2.9402,2.942,2.9417,2.9417,2.9321,2.9309,2.9429,2.9429,2.9429,2.9429,2.9429,2.9429,2.9299,2.9342,2.9333,2.9378,2.9377,2.9406,2.9413,2.9421,2.9426,2.9459,2.9476,2.9471,2.9471,2.949,2.9508,2.9505,2.9513,2.9535,2.9527,2.9438,2.9424,2.9412,2.94,2.9537,2.9537,2.9621,2.9622,2.9623]},{"header":{"parameterUnit":"m.s-1","parameterCategory":1,"la1":30.2991,"la2":30.254,"lo1":-89.0895,"lo2":-89.0444,"dy":0.0017,"dx":0.0017,"nx":28,"ny":28,"refTime":"2026-01-31T03:00:00:Z","depth":0,"parameterNumber":3,"parameterNumberName":"V-component_of_WINDS"},"data":[0,0,0,0,0,0,0,0,0,0,0,0,0,0,0,0,0,0,0,0,0,0,0,0,0,0,0,0,0,0,0,0,0,0,0,0,0,0,0,0,0,0,0,0,0,0,0,0,0,0,0,0,0,0,0,0,0,0,-2.2561,-2.2563,0,-2.2697,-2.2699,-2.27,-2.2732,-2.2731,-2.273,-2.2729,-2.2868,-2.2873,-2.2877,0,0,0,0,0,0,0,0,0,0,0,0,0,-2.2329,-2.2333,-2.2561,-2.2563,-2.2565,-2.2697,-2.2699,-2.2701,-2.2732,-2.2731,-2.273,-2.2729,-2.2867,-2.2872,-2.2878,0,0,0,0,0,0,0,0,0,0,0,0,0,-2.2444,-2.2335,-2.2561,-2.2596,-2.2601,-2.2697,-2.2699,-2.2701,-2.2732,-2.2731,-2.2729,-2.2728,-2.2865,-2.2872,-2.2879,-2.2949,0,0,-2.29,-2.2903,0,0,0,0,0,0,0,0,-2.2438,-2.2453,-2.2589,-2.2594,-2.2599,-2.2696,-2.2668,-2.2784,-2.2733,-2.2682,-2.2729,-2.2727,-2.2812,-2.2823,-2.2852,-2.2956,-2.2962,-2.29,-2.2904,-2.2907,-2.2909,0,0,0,0,0,0,0,-2.243,-2.2447,-2.2615,-2.2591,-2.2597,-2.2605,-2.262,-2.269,-2.2753,-2.2687,-2.2689,-2.2705,-2.2815,-2.2845,-2.2855,-2.2964,-2.29,-2.2906,-2.291,-2.2913,-2.3132,-2.3134,0,0,0,0,0,0,-2.2415,-2.244,-2.2611,-2.2619,-2.2513,-2.2611,-2.2627,-2.2666,-2.2753,-2.2765,-2.2706,-2.2706,-2.2834,-2.2847,-2.286,-2.2949,-2.2907,-2.2914,-2.2918,-2.3131,-2.3133,-2.3135,0,0,0,0,0,0,-2.241,-2.243,-2.2605,-2.253,-2.2553,-2.2616,-2.266,-2.267,-2.27,-2.2767,-2.2779,-2.2725,-2.2834,-2.2851,-2.2927,-2.2954,-2.2917,-2.2923,-2.3129,-2.3131,-2.3134,-2.3125,0,0,0,0,0,0,-2.2403,-2.2428,-2.2456,-2.2531,-2.2557,-2.2669,-2.2662,-2.2674,-2.2712,-2.2713,-2.2789,-2.28,-2.2834,-2.2916,-2.2934,-2.2963,-2.2928,-2.3127,-2.313,-2.3133,-2.3123,-2.3127,-2.3131,0,0,0,0,0,-2.2395,-2.2448,-2.2457,-2.2477,-2.2593,-2.2671,-2.2686,-2.2724,-2.2714,-2.2742,-2.2785,-2.2798,-2.2948,-2.2924,-2.2944,-2.2975,-2.3125,-2.3129,-2.3133,-2.3122,-2.3127,-2.313,0,0,0,0,0,0,-2.2374,-2.2458,-2.2469,-2.2548,-2.2602,-2.2676,-2.2712,-2.2727,-2.2785,-2.2784,-2.2828,-2.2845,-2.2918,-2.2955,-2.2926,-2.3048,-2.3036,-2.3044,-2.3021,-2.3027,-2.303,-2.3019,-2.2934,0,0,0,0,0,-2.2378,-2.2435,-2.2505,-2.2568,-2.2595,-2.2649,-2.2684,-2.2709,-2.2766,-2.2789,-2.2838,-2.2894,-2.2954,-2.2992,-2.3051,-2.3129,-2.3146,-2.3161,-2.3164,-2.3167,-2.3173,-2.3217,-2.3224,-2.3147,-2.3147,-2.3147,0,0,-2.2388,-2.2441,-2.2474,-2.2565,-2.261,-2.2667,-2.2668,-2.2728,-2.2771,-2.2799,-2.2873,-2.2911,-2.2976,-2.3054,-2.309,-2.3086,-2.3198,-2.3172,-2.3173,-2.3178,-2.3221,-2.3229,-2.3235,-2.315,-2.3149,-2.3149,0,0,-2.2435,-2.2481,-2.2538,-2.2583,-2.2651,-2.2687,-2.27,-2.2773,-2.2799,-2.2874,-2.2896,-2.2948,-2.3051,-2.3096,-2.3133,-2.3198,-2.3211,-2.3216,-2.3234,-2.3276,-2.3282,-2.3288,-2.3311,-2.3318,-2.3222,-2.3222,-2.3222,0,-2.2439,-2.2526,-2.2566,-2.2625,-2.2665,-2.2692,-2.2751,-2.2792,-2.2876,-2.2903,-2.2897,-2.3026,-2.3072,-2.316,-2.3176,-2.3205,-2.3222,-2.3207,-2.3278,-2.3284,-2.329,-2.3312,-2.3321,-2.3222,-2.3222,-2.3222,-2.3222,0,-2.2526,-2.2587,-2.2625,-2.2704,-2.2748,-2.2807,-2.2856,-2.2895,-2.2917,-2.2953,-2.303,-2.3086,-2.3157,-2.318,-2.3201,-2.3271,-2.3267,-2.3269,-2.3258,-2.3297,-2.3318,-2.3327,-2.3222,-2.3222,-2.3222,-2.3222,0,0,-2.2563,-2.2664,-2.2678,-2.2714,-2.2791,-2.2839,-2.2899,-2.2968,-2.3001,-2.3058,-2.311,-2.3196,-2.3199,-2.324,-2.3267,-2.3304,-2.3352,-2.3303,-2.3305,-2.3309,-2.3433,-2.343,-2.3439,-2.3362,-2.3364,-2.3365,-2.3427,0,-2.2619,-2.2726,-2.2764,-2.2853,-2.2909,-2.2937,-2.2989,-2.3042,-2.3078,-2.3131,-2.3171,-2.3232,-2.3231,-2.3256,-2.3295,-2.3338,-2.3377,-2.3334,-2.341,-2.3412,-2.3391,-2.345,-2.3447,-2.3503,-2.3436,-2.3437,-2.3438,0,-2.2698,-2.2756,-2.285,-2.292,-2.2945,-2.2992,-2.3058,-2.3109,-2.317,-2.3193,-2.324,-2.3264,-2.3328,-2.3314,-2.3404,-2.3373,-2.3407,-2.3433,-2.3436,-2.3444,-2.3426,-2.3459,-2.3521,-2.3529,-2.3452,-2.3451,-2.345,0,-2.2714,-2.2816,-2.2885,-2.2916,-2.3,-2.3032,-2.3068,-2.3128,-2.3167,-2.3226,-2.3252,-2.3317,-2.3353,-2.3403,-2.3444,-2.343,-2.353,-2.3519,-2.3551,-2.355,-2.3569,-2.3567,-2.3638,-2.3592,-2.3592,-2.3592,-2.3592,0,-2.2771,-2.2828,-2.2893,-2.2936,-2.3,-2.3044,-2.3106,-2.3145,-2.3198,-2.3249,-2.3277,-2.3324,-2.3377,-2.3431,-2.3464,-2.3532,-2.3549,-2.3569,-2.3577,-2.3566,-2.3563,-2.3588,-2.3585,-2.3594,-2.3594,-2.3594,-2.3593,0,-2.28,-2.2846,-2.2923,-2.2997,-2.3017,-2.3061,-2.3124,-2.3167,-2.3204,-2.3268,-2.3286,-2.3345,-2.341,-2.3456,-2.3541,-2.3563,-2.3636,-2.3645,-2.3615,-2.3619,-2.3648,-2.3644,-2.3736,-2.375,-2.3695,-2.3696,-2.3696,0,-2.2833,-2.2877,-2.2955,-2.2991,-2.3028,-2.3085,-2.3125,-2.317,-2.3211,-2.3284,-2.3318,-2.3386,-2.3441,-2.3545,-2.3595,-2.366,-2.3669,-2.3697,-2.3679,-2.3667,-2.3669,-2.3665,-2.367,-2.3699,-2.3699,-2.37,-2.37,0,-2.2887,-2.2908,-2.2964,-2.3029,-2.3076,-2.313,-2.3184,-2.3212,-2.3266,-2.3311,-2.3377,-2.3421,-2.3507,-2.3573,-2.3643,-2.3681,-2.37,-2.3705,-2.3716,-2.3705,-2.3686,-2.3696,-2.3622,-2.3703,-2.3702,-2.3702,-2.3702,-2.3702,-2.2918,-2.2959,-2.302,-2.3082,-2.3127,-2.3177,-2.3221,-2.3264,-2.332,-2.3393,-2.3417,-2.3486,-2.3547,-2.3643,-2.3682,-2.3737,-2.3735,-2.3751,-2.3755,-2.3758,-2.3757,-2.3678,-2.375,-2.375,-2.375,-2.375,-2.375,0,-2.2973,-2.3014,-2.3071,-2.3145,-2.3194,-2.3208,-2.3268,-2.3308,-2.3369,-2.3424,-2.3478,-2.3555,-2.362,-2.3676,-2.3743,-2.3777,-2.3787,-2.3793,-2.379,-2.3799,-2.3755,-2.3738,-2.3783,-2.3783,-2.3783,-2.3783,-2.3783,-2.3783,-2.3007,-2.3076,-2.3104,-2.3196,-2.3237,-2.3304,-2.3338,-2.3384,-2.3428,-2.3513,-2.3566,-2.3602,-2.3658,-2.373,-2.379,-2.3805,-2.3828,-2.3831,-2.3848,-2.3806,-2.3802,-2.3798,-2.3783,-2.3836,-2.3836,-2.3888,-2.3888,-2.3888]}]]